Torna al catalogo

FENGYUN 1C DEB

AttivoSSO
NORAD 31440·DEBRIS·🇨🇳 China

Lanciato May 10, 1999 da Taiyuan Satellite Launch Center

Loading…

Prossimi Passaggi (prossime 24 ore)

TLE

AggiornatoSource: Space-Track

Epoca: Sep 14, 2026, 05:23 UTC

1 31440U 99025BUC 26257.22487898  .00002861  00000-0  93065-3 0  9990
2 31440  98.7421 355.0515 0037542 242.7397 116.9964 14.39182888  2240

Traccia FENGYUN 1C DEB in tempo reale con AllMySat

Download on the App Store